User: anonymous
Location: Mount Kobau Star Party
(49.1167°N, 119.7333°W)
Time: 22:00:27
(UTC-07:00)
Language:

TSX-5 - Orbit

View from above orbital plane
View from above orbital plane
View from above satellite
View from above satellite

Ground track
Ground track

The orbit data is extracted from the following two-line orbital elements,

1 26374U 00030A   14210.87727933  .00004555  00000-0  41714-3 0  3510
2 26374 068.9345 044.6663 0697817 023.4241 066.1381 13.93112998708581
Epoch (UTC): 29 July 2014 21:03:16
Eccentricity: 0.0697817
inclination: 68.9345°
perigee height: 408 km
apogee height: 1427 km
right ascension of ascending node: 44.6663°
argument of perigee: 23.4241°
revolutions per day: 13.93112998
mean anomaly at epoch: 66.1381°
orbit number at epoch: 70858

The dashed part of the orbit path shows where the satellite is in the earth's shadow,  

DLR